Location: Unspecified
(0.0000°N, 0.0000°E)
Time: 06:49:50
(UTC+00:00)

Courier 1B - Pass Details

Date: 21 November 2019
Orbit: 963 x 1209 km, 28.3° (Epoch: 11 December)

Event Time Altitude Azimuth Distance (km) Brightness Sun altitude
Rises 02:20:18 0° 256° (WSW) 4,079 - -47.3°
Reaches altitude 10° 02:23:24 10° 264° (W) 3,092 - -46.6°
Maximum altitude 02:30:26 39° 330° (NNW) 1,632 - -45.1°
Drops below altitude 10° 02:37:07 10° 37° (NE) 2,932 - -43.6°
Exits shadow 02:38:52 - 43° (NE) 3,480 10.5 -43.2°
Sets 02:40:00 0° 45° (NE) 3,848 10.8 -43.0°
